Content
SEND FEEDBACK

Daily
Averages
Monthly
Summary
Canada

DELTA, BRITISH COLUMBIA


Home > North America > Canada > British Columbia
Elevation: 30 feet     Latitude: 49 10N     Longitude: 123 10W

WEATHER
 
SELECT A DAY
Number of Records: 248,931;   Date Range: 5/15/97 - 4/19/14
 
SHARE

PRINT THIS DATA

[ ← Previous Day ]
WEATHER ALMANAC - JANUARY 19, 2013
[ Next Day → ]
[ °C ]   °F
Weather ElementAverageHighLow
Temperature38.2 °F39.2 °F (12:35 pm)35.6 °F (5:15 am)
Dewpoint36.3 °F39.2 °F (9:15 pm)33.8 °F (8:15 am)
Humidity92.6 %100 % (12:35 am)87 % (12:35 pm)
Barometer30.36 in30.39 in (10:15 am)30.34 in (12:35 am)
Wind Speed5.8 mph9.2 mph (2:55 pm)
Weather ElementAverage
Visibility8.7 mi
Wind DirectionWSW (232.8 °)

Weather ElementTotal
Precipitation---
Heating Degree Days27.6 (Base 65)
Averaged from 58 records on January 19, 2013
WEATHER CONDITIONS BREAKOUT
WIND DIRECTION BREAKOUT
WEATHER BY HOUR - JANUARY 19, 2013
[ °C ]   °F
Local TimeTemperatureDewpointHumidityBarometerVisibilityWind DirectionWind SpeedGust SpeedPrecipitationEventsConditions
12:35 AM37.4 °F37.4 °F100 %30.34 in3.0 miCalmOvercast
12:55 AM37.4 °F35.6 °F93 %30.34 in5.0 miCalmOvercast
1:15 AM37.4 °F35.6 °F93 %30.34 in5.0 miNorthOvercast
1:35 AM37.4 °F35.6 °F93 %30.35 in5.0 miNE (50°)3.5 mphOvercast
1:55 AM37.4 °F35.6 °F93 %30.34 in5.0 miNorthOvercast
2:15 AM37.4 °F35.6 °F93 %30.35 in6.0 miNorth (10°)4.6 mphOvercast
2:35 AM37.4 °F35.6 °F93 %30.35 in7.0 miCalmOvercast
3:15 AM37.4 °F35.6 °F93 %30.36 in6.0 miCalmOvercast
3:35 AM37.4 °F35.6 °F93 %30.35 in5.0 miNE (40°)3.5 mphOvercast
3:55 AM37.4 °F35.6 °F93 %30.36 in5.0 miNNE (30°)3.5 mphOvercast
5:15 AM35.6 °F35.6 °F100 %30.35 in5.0 miCalmOvercast
5:55 AM37.4 °F35.6 °F93 %30.35 in5.0 miNorth (10°)6.9 mphOvercast
6:15 AM37.4 °F35.6 °F93 %30.36 in8.0 miNorth (10°)4.6 mphOvercast
6:35 AM37.4 °F35.6 °F93 %30.36 in10.0 miNNE (20°)3.5 mphOvercast
7:35 AM37.4 °F35.6 °F93 %30.36 in9.0 miNorth (360°)6.9 mphOvercast
7:55 AM35.6 °F35.6 °F100 %30.36 in9.0 miNorth (360°)8.1 mphOvercast
8:15 AM35.6 °F33.8 °F93 %30.37 in10.0 miNorth (360°)5.8 mphOvercast
8:35 AM35.6 °F33.8 °F93 %30.37 in5.0 miNorth (350°)8.1 mphOvercast
9:15 AM35.6 °F33.8 °F93 %30.38 in2.5 miNorth (360°)4.6 mphOvercast
10:15 AM35.6 °F35.6 °F100 %30.39 in7.0 miNorth (10°)5.8 mphOvercast
10:55 AM37.4 °F35.6 °F93 %30.39 in10.0 miNorth (10°)5.8 mphOvercast
11:15 AM37.4 °F35.6 °F93 %30.38 in10.0 miNorth (360°)8.1 mphOvercast
11:35 AM37.4 °F35.6 °F93 %30.38 in10.0 miNorth (360°)6.9 mphOvercast
12:15 PM37.4 °F35.6 °F93 %30.37 in10.0 miNorth (360°)6.9 mphOvercast
12:35 PM39.2 °F35.6 °F87 %30.37 in10.0 miNorth (10°)5.8 mphOvercast
12:55 PM37.4 °F35.6 °F93 %30.36 in10.0 miNorth (360°)5.8 mphOvercast
1:15 PM39.2 °F35.6 °F87 %30.36 in10.0 miNorth (10°)5.8 mphOvercast
1:35 PM39.2 °F35.6 °F87 %30.36 in10.0 miNorth (10°)4.6 mphOvercast
1:55 PM39.2 °F35.6 °F87 %30.35 in10.0 miNorth (360°)6.9 mphOvercast
2:15 PM39.2 °F35.6 °F87 %30.35 in10.0 miNorth (10°)6.9 mphOvercast
2:35 PM39.2 °F35.6 °F87 %30.35 in10.0 miNorth (360°)6.9 mphMostly Cloudy
2:55 PM39.2 °F35.6 °F87 %30.35 in10.0 miNorth (350°)9.2 mphOvercast
3:15 PM39.2 °F35.6 °F87 %30.35 in10.0 miNorth (360°)9.2 mphOvercast
3:35 PM39.2 °F35.6 °F87 %30.35 in10.0 miNorth (10°)9.2 mphOvercast
3:55 PM39.2 °F35.6 °F87 %30.35 in10.0 miNorth (350°)8.1 mphOvercast
4:15 PM39.2 °F35.6 °F87 %30.35 in10.0 miNorth (360°)6.9 mphOvercast
4:35 PM39.2 °F35.6 °F87 %30.35 in10.0 miNorth (360°)6.9 mphMostly Cloudy
4:55 PM39.2 °F35.6 °F87 %30.35 in10.0 miNorth (350°)8.1 mphOvercast
5:15 PM39.2 °F37.4 °F93 %30.35 in10.0 miNorth (360°)6.9 mphOvercast
5:35 PM39.2 °F37.4 °F93 %30.35 in10.0 miNorth (360°)5.8 mphOvercast
5:55 PM39.2 °F37.4 °F93 %30.35 in10.0 miNorth (360°)6.9 mphOvercast
6:15 PM39.2 °F37.4 °F93 %30.35 in10.0 miNorth (360°)5.8 mphOvercast
6:35 PM39.2 °F37.4 °F93 %30.35 in10.0 miNorth (360°)5.8 mphOvercast
6:55 PM39.2 °F37.4 °F93 %30.35 in10.0 miNorth (360°)8.1 mphMostly Cloudy
7:15 PM39.2 °F37.4 °F93 %30.36 in10.0 miNorth (360°)5.8 mphMostly Cloudy
7:35 PM39.2 °F37.4 °F93 %30.36 in10.0 miNorth (360°)5.8 mphOvercast
7:55 PM39.2 °F37.4 °F93 %30.36 in10.0 miNorth (360°)6.9 mphOvercast
8:15 PM39.2 °F37.4 °F93 %30.36 in10.0 miNorth (360°)6.9 mphMostly Cloudy
8:35 PM39.2 °F37.4 °F93 %30.36 in10.0 miNorth (360°)5.8 mphMostly Cloudy
8:55 PM39.2 °F37.4 °F93 %30.36 in10.0 miNorth (360°)5.8 mphMostly Cloudy
9:15 PM39.2 °F39.2 °F100 %30.37 in10.0 miNorth (350°)6.9 mphOvercast
9:35 PM39.2 °F39.2 °F100 %30.37 in10.0 miNorth (360°)6.9 mphOvercast
9:55 PM39.2 °F37.4 °F93 %30.37 in10.0 miNorth (360°)6.9 mphOvercast
10:15 PM39.2 °F37.4 °F93 %30.37 in10.0 miNorth (360°)4.6 mphOvercast
10:35 PM39.2 °F37.4 °F93 %30.37 in10.0 miNorth (360°)4.6 mphOvercast
11:15 PM39.2 °F37.4 °F93 %30.37 in10.0 miNorth (360°)6.9 mphMostly Cloudy
11:35 PM39.2 °F39.2 °F100 %30.38 in10.0 miNorth (350°)9.2 mphMostly Cloudy
11:55 PM39.2 °F39.2 °F100 %30.37 in10.0 miNorth (360°)5.8 mphScattered Clouds
Hourly data recorded from CZBB, located 0.79 miles away from Delta, British Columbia







STORIES FROM OUR PARTNERS